Powrót do katalogu

STARLINK-2455

AktywnyŁącznośćVLEO
NORAD 48117·PAYLOAD·🇺🇸 United States

Wystrzelony Apr 7, 2021 z Cape Canaveral Space Force Station

Loading…

Następne Przeloty (najbliższe 24 godziny)

TLE

ŚwieżeSource: CelesTrak SupGP

Epoka: Sep 14, 2026, 21:51 UTC

1 48117C 21027AB  26257.91090278 -.00031382  00000+0 -10090-2 0  2578
2 48117  53.1600 351.8979 0001063  84.5937 123.5930 15.31723748    11

Śledź STARLINK-2455 w czasie rzeczywistym z AllMySat

Download on the App Store